| time (UTC) | temp F | wind direction | speed knots | gust knots | rain 1hr in | rain 24hr in | rain mn in | humidity % | barometer mb |
| 20260901201529 | 66 | 79 | 1.7 | 7.0 | 0.00 | 0.00 | 0.00 | 56 | 1011.2 |
| 20260901200027 | 65 | 200 | 1.7 | 6.1 | 0.00 | 0.00 | 0.00 | 56 | 1011.1 |
| 20260901194521 | 64 | 171 | 1.7 | 4.3 | 0.00 | 0.00 | 0.00 | 56 | 1011.3 |
| 20260901193016 | 63 | 190 | 1.7 | 7.8 | 0.00 | 0.00 | 0.00 | 55 | 1011.5 |
| 20260901191514 | 63 | 265 | 0.9 | 4.3 | 0.00 | 0.00 | 0.00 | 54 | 1011.6 |
| 20260901190009 | 63 | 281 | 0.9 | 2.6 | 0.00 | 0.00 | 0.00 | 53 | 1011.7 |
| 20260901184502 | 63 | 217 | 1.7 | 4.3 | 0.00 | 0.00 | 0.00 | 53 | 1011.8 |
| 20260901183059 | 62 | 239 | 1.7 | 7.8 | 0.00 | 0.00 | 0.00 | 48 | 1011.9 |
| 20260901181555 | 62 | 207 | 1.7 | 8.7 | 0.00 | 0.00 | 0.00 | 44 | 1012.0 |
| 20260901180050 | 61 | 15 | 0.0 | 3.5 | 0.00 | 0.00 | 0.00 | 37 | 1012.1 |
| 20260901174549 | 61 | 201 | 0.9 | 5.2 | 0.00 | 0.00 | 0.00 | 35 | 1012.0 |
| 20260901173042 | 60 | 303 | 0.9 | 3.5 | 0.00 | 0.00 | 0.00 | 10 | 1012.0 |
| 20260901171541 | 59 | 215 | 1.7 | 6.1 | 0.00 | 0.00 | 0.00 | 14 | 1011.9 |
| 20260901170032 | 59 | 215 | 1.7 | 5.2 | 0.00 | 0.00 | 0.00 | 17 | 1012.0 |
| 20260901164533 | 59 | 188 | 0.0 | 3.5 | 0.00 | 0.00 | 0.00 | 7 | 1011.9 |
| 20260901163026 | 58 | 235 | 0.0 | 2.6 | 0.00 | 0.00 | 0.00 | 100 | 1011.9 |
| 20260901161519 | 57 | 203 | 0.0 | 2.6 | 0.00 | 0.00 | 0.00 | 100 | 1012.1 |
| 20260901160015 | 57 | 201 | 0.0 | 1.7 | 0.00 | 0.00 | 0.00 | 100 | 1012.1 |
| 20260901154520 | 57 | 194 | 0.0 | 1.7 | 0.00 | 0.00 | 0.00 | 100 | 1012.1 |
| 20260901153006 | 56 | 198 | 0.0 | 2.6 | 0.00 | 0.00 | 0.00 | 100 | 1012.0 |
| 20260901151502 | 57 | 197 | 0.0 | 3.5 | 0.00 | 0.00 | 0.00 | 100 | 1012.1 |
| 20260901150101 | 57 | 207 | 0.9 | 3.5 | 0.00 | 0.00 | 0.00 | 6 | 1012.0 |
| 20260901144552 | 57 | 227 | 0.0 | 1.7 | 0.00 | 0.00 | 0.00 | 15 | 1011.9 |
| 20260901143059 | 57 | 244 | 0.0 | 2.6 | 0.00 | 0.00 | 0.00 | 23 | 1011.8 |
| 20260901141548 | 58 | 189 | 1.7 | 5.2 | 0.00 | 0.00 | 0.00 | 29 | 1011.7 |
| 20260901140039 | 58 | 187 | 0.0 | 3.5 | 0.00 | 0.00 | 0.00 | 30 | 1011.5 |
| 20260901134539 | 58 | 195 | 0.0 | 2.6 | 0.00 | 0.00 | 0.00 | 29 | 1011.5 |
| 20260901133041 | 57 | 204 | 0.0 | 1.7 | 0.00 | 0.00 | 0.00 | 29 | 1011.3 |
| 20260901131525 | 57 | 204 | 0.0 | 0.9 | 0.00 | 0.00 | 0.00 | 29 | 1011.3 |
| 20260901130020 | 57 | 204 | 0.0 | 0.9 | 0.00 | 0.00 | 0.00 | 27 | 1011.4 |
| 20260901124517 | 57 | 204 | 0.0 | 0.0 | 0.00 | 0.00 | 0.00 | 25 | 1011.3 |
| 20260901123012 | 57 | 204 | 0.0 | 0.9 | 0.00 | 0.00 | 0.00 | 24 | 1011.3 |
| 20260901121508 | 57 | 204 | 0.0 | 1.7 | 0.00 | 0.00 | 0.00 | 23 | 1011.4 |
| 20260901120003 | 57 | 204 | 0.0 | 1.7 | 0.00 | 0.00 | 0.00 | 23 | 1011.3 |
| 20260901114601 | 57 | 204 | 0.0 | 0.9 | 0.00 | 0.00 | 0.00 | 21 | 1011.3 |
| 20260901113059 | 56 | 204 | 0.0 | 1.7 | 0.00 | 0.00 | 0.00 | 20 | 1011.3 |
| 20260901111552 | 56 | 204 | 0.0 | 1.7 | 0.00 | 0.00 | 0.00 | 19 | 1011.1 |
| 20260901110050 | 56 | 205 | 0.0 | 0.9 | 0.00 | 0.00 | 0.00 | 17 | 1011.1 |
| 20260901104546 | 56 | 205 | 0.0 | 1.7 | 0.00 | 0.00 | 0.00 | 16 | 1011.0 |
| 20260901103036 | 55 | 207 | 0.9 | 3.5 | 0.00 | 0.00 | 0.00 | 13 | 1011.0 |
| 20260901101532 | 55 | 216 | 0.0 | 2.6 | 0.00 | 0.00 | 0.00 | 9 | 1010.9 |
| 20260901100030 | 55 | 234 | 0.0 | 2.6 | 0.00 | 0.00 | 0.00 | 12 | 1011.0 |
| 20260901094529 | 55 | 176 | 0.0 | 1.7 | 0.00 | 0.00 | 0.00 | 13 | 1010.9 |
| 20260901093027 | 55 | 176 | 0.0 | 2.6 | 0.00 | 0.00 | 0.00 | 14 | 1011.0 |
| 20260901091526 | 55 | 175 | 0.0 | 0.9 | 0.00 | 0.00 | 0.00 | 15 | 1010.9 |
| 20260901090030 | 55 | 206 | 0.0 | 2.6 | 0.00 | 0.00 | 0.00 | 15 | 1010.8 |
| 20260901084524 | 55 | 203 | 0.9 | 3.5 | 0.00 | 0.00 | 0.00 | 15 | 1010.7 |
| 20260901083022 | 55 | 232 | 0.0 | 0.0 | 0.00 | 0.00 | 0.00 | 22 | 1010.7 |
| 20260901081518 | 56 | 237 | 0.0 | 1.7 | 0.00 | 0.00 | 0.00 | 25 | 1010.6 |
| 20260901080015 | 56 | 238 | 0.0 | 0.9 | 0.00 | 0.00 | 0.00 | 30 | 1010.6 |
| 20260901074513 | 57 | 238 | 0.0 | 0.9 | 0.00 | 0.00 | 0.00 | 32 | 1010.7 |
| 20260901073011 | 57 | 238 | 0.0 | 2.6 | 0.00 | 0.00 | 0.00 | 34 | 1010.5 |
| 20260901071510 | 57 | 238 | 0.0 | 1.7 | 0.00 | 0.00 | 0.00 | 37 | 1010.4 |
| 20260901070009 | 57 | 233 | 0.0 | 1.7 | 0.00 | 0.00 | 0.00 | 38 | 1010.4 |
| 20260901064502 | 58 | 225 | 0.9 | 2.6 | 0.00 | 0.00 | 0.00 | 41 | 1010.3 |
| 20260901063058 | 58 | 278 | 0.0 | 3.5 | 0.00 | 0.00 | 0.00 | 43 | 1010.1 |
| 20260901061600 | 58 | 282 | 0.9 | 6.1 | 0.00 | 0.00 | 0.00 | 45 | 1009.9 |
| 20260901060049 | 59 | 215 | 1.7 | 7.0 | 0.00 | 0.00 | 0.00 | 46 | 1010.0 |
| 20260901054545 | 59 | 227 | 0.9 | 9.6 | 0.00 | 0.00 | 0.00 | 48 | 1009.9 |
| 20260901053042 | 59 | 250 | 1.7 | 5.2 | 0.00 | 0.00 | 0.00 | 51 | 1009.6 |
| 20260901051540 | 60 | 248 | 0.9 | 2.6 | 0.00 | 0.00 | 0.00 | 52 | 1009.6 |
| 20260901050032 | 60 | 203 | 0.9 | 3.5 | 0.00 | 0.00 | 0.00 | 54 | 1009.4 |
| 20260901044529 | 61 | 261 | 0.0 | 0.9 | 0.00 | 0.00 | 0.00 | 58 | 1009.2 |
| 20260901043027 | 62 | 261 | 0.0 | 1.7 | 0.00 | 0.00 | 0.00 | 60 | 1009.1 |
| 20260901041519 | 63 | 218 | 0.9 | 3.5 | 0.00 | 0.00 | 0.00 | 62 | 1008.7 |
| 20260901040015 | 64 | 200 | 0.9 | 6.1 | 0.00 | 0.00 | 0.00 | 63 | 1008.5 |
| 20260901034510 | 65 | 198 | 2.6 | 6.1 | 0.00 | 0.00 | 0.00 | 63 | 1008.2 |
| 20260901033008 | 67 | 198 | 0.9 | 7.0 | 0.00 | 0.00 | 0.00 | 62 | 1008.0 |
| 20260901031501 | 69 | 269 | 0.0 | 7.0 | 0.00 | 0.00 | 0.00 | 60 | 1007.8 |
| 20260901030057 | 70 | 320 | 0.9 | 2.6 | 0.00 | 0.00 | 0.00 | 56 | 1007.6 |
| 20260901024552 | 71 | 298 | 0.0 | 4.3 | 0.00 | 0.00 | 0.00 | 54 | 1007.5 |
| 20260901023054 | 73 | 275 | 0.9 | 3.5 | 0.00 | 0.00 | 0.00 | 53 | 1007.3 |
| 20260901021544 | 75 | 284 | 0.9 | 6.1 | 0.00 | 0.00 | 0.00 | 50 | 1007.2 |
| 20260901020039 | 77 | 288 | 1.7 | 4.3 | 0.00 | 0.00 | 0.00 | 48 | 1007.0 |
| 20260901014535 | 79 | 279 | 3.5 | 8.7 | 0.00 | 0.00 | 0.00 | 45 | 1007.0 |
| 20260901013039 | 82 | 300 | 0.9 | 4.3 | 0.00 | 0.00 | 0.00 | 42 | 1006.7 |
| 20260901011526 | 82 | 273 | 0.0 | 2.6 | 0.00 | 0.00 | 0.00 | 40 | 1006.7 |
| 20260901010029 | 83 | 229 | 0.9 | 3.5 | 0.00 | 0.00 | 0.00 | 40 | 1006.8 |
| 20260901004520 | 83 | 261 | 0.0 | 6.1 | 0.00 | 0.00 | 0.00 | 38 | 1006.9 |
| 20260901003014 | 82 | 281 | 0.0 | 1.7 | 0.00 | 0.00 | 0.00 | 40 | 1006.8 |
| 20260901001512 | 82 | 281 | 0.0 | 1.7 | 0.00 | 0.00 | 0.00 | 37 | 1006.9 |
| 20260901000008 | 81 | 275 | 0.0 | 4.3 | 0.00 | 0.00 | 0.00 | 36 | 1006.9 |
| 20260831234601 | 82 | 303 | 0.0 | 2.6 | 0.00 | 0.00 | 0.00 | 37 | 1007.1 |
| 20260831233056 | 82 | 65 | 0.0 | 1.7 | 0.00 | 0.00 | 0.00 | 37 | 1007.1 |
| 20260831231554 | 82 | 289 | 0.0 | 3.5 | 0.00 | 0.00 | 0.00 | 38 | 1007.1 |
| 20260831230051 | 81 | 274 | 0.9 | 2.6 | 0.00 | 0.00 | 0.00 | 37 | 1007.3 |
| 20260831224542 | 82 | 225 | 0.9 | 2.6 | 0.00 | 0.00 | 0.00 | 35 | 1007.6 |
| 20260831223038 | 83 | 313 | 0.0 | 4.3 | 0.00 | 0.00 | 0.00 | 36 | 1007.5 |
| 20260831221541 | 82 | 295 | 0.0 | 4.3 | 0.00 | 0.00 | 0.00 | 36 | 1007.6 |
| 20260831220029 | 81 | 79 | 0.0 | 3.5 | 0.00 | 0.00 | 0.00 | 41 | 1007.7 |
| 20260831214524 | 81 | 290 | 0.0 | 1.7 | 0.00 | 0.00 | 0.00 | 42 | 1007.9 |
| 20260831213023 | 80 | 331 | 0.0 | 2.6 | 0.00 | 0.00 | 0.00 | 43 | 1008.1 |
| 20260831211516 | 78 | 282 | 0.9 | 3.5 | 0.00 | 0.00 | 0.00 | 44 | 1008.2 |
| 20260831210011 | 77 | 186 | 0.9 | 3.5 | 0.00 | 0.00 | 0.00 | 46 | 1008.3 |
| 20260831204508 | 76 | 32 | 0.9 | 2.6 | 0.00 | 0.00 | 0.00 | 47 | 1008.5 |
| 20260831203003 | 75 | 51 | 0.9 | 2.6 | 0.00 | 0.00 | 0.00 | 48 | 1008.7 |